Location: Unspecified
(0.0000°N, 0.0000°E)
Time: 11:10:32
(UTC+02:00)

Iridium 15 - Visible Passes

Search period start: 02 September 2014 00:00
Search period end: 12 September 2014 00:00
Orbit: 776 x 779 km, 86.4° (Epoch: 01 September)

Date Brightness Start Highest point End Pass type
(mag) Time Alt. Az. Time Alt. Az. Time Alt. Az.
02 Sep 6.0 20:44:57 10° N 20:50:04 63° E 20:55:13 10° S visible
03 Sep 8.9 21:53:57 10° NW 21:57:03 16° W 22:00:10 10° SW visible
04 Sep 7.6 21:18:53 10° NNW 21:23:35 35° W 21:28:19 10° SSW visible
05 Sep 6.2 20:44:57 10° N 20:50:08 80° W 20:55:21 10° S visible
07 Sep 8.6 21:19:43 10° NW 21:23:39 22° W 21:27:36 10° SW visible
08 Sep 7.1 20:45:12 10° NNW 20:50:11 49° W 20:55:12 10° SSW visible
10 Sep 9.7 07:08:18 10° ESE 07:09:52 11° E 07:11:26 10° ENE visible
10 Sep 9.3 21:21:16 10° WNW 21:23:42 13° W 21:26:10 10° WSW visible
11 Sep 8.2 20:45:46 10° NNW 20:50:15 30° W 20:54:46 10° SSW visible
